EA5DFV Weather Reports


time (UTC)temp
C
wind
direction
speed
KPH
gust
KPH
rain 1hr
cm
rain 24hr
cm
rain mn
cm
humidity
%
barometer
mb
20190424082828 17 232 0.0 1.6 0.00 0.61 0.00 47 1009.8
20190424082339 16 232 0.0 1.6 0.00 0.61 0.00 50 1009.7
20190424081831 16 232 0.0 1.6 0.00 0.61 0.00 48 1009.7
20190424081323 16 230 0.0 1.6 0.00 0.61 0.00 47 1009.7
20190424080822 16 233 0.0 1.6 0.00 0.61 0.00 49 1009.7
20190424080336 16 187 0.0 1.6 0.00 0.61 0.00 51 1009.7
20190424075827 15 188 0.0 1.6 0.00 0.61 0.00 50 1009.7
20190424075339 15 206 0.0 1.6 0.00 0.61 0.00 49 1009.8
20190424074829 15 211 0.0 1.6 0.00 0.61 0.00 51 1009.7
20190424074341 15 209 0.0 1.6 0.00 0.61 0.00 51 1009.4
20190424073833 15 217 0.0 1.6 0.00 0.61 0.00 53 1009.2
20190424073323 14 226 0.0 1.6 0.00 0.61 0.00 55 1009.2
20190424072835 13 227 0.0 1.6 0.00 0.61 0.00 58 1009.2
20190424072330 13 225 0.0 1.6 0.00 0.61 0.00 56 1009.2
20190424071820 13 155 0.0 1.6 0.00 0.61 0.00 59 1009.2
20190424071317 13 146 0.0 1.6 0.00 0.61 0.00 64 1009.3
20190424070832 12 73 0.0 1.6 0.00 0.61 0.00 67 1009.2
20190424070326 12 70 0.0 0.0 0.00 0.61 0.00 65 1009.2
20190424065835 12 70 0.0 0.0 0.00 0.61 0.00 66 1009.1
20190424065326 12 69 0.0 0.0 0.00 0.61 0.00 69 1009.0
20190424064838 11 69 0.0 1.6 0.00 0.61 0.00 70 1008.8
20190424064334 11 70 0.0 1.6 0.00 0.61 0.00 69 1008.8
20190424063845 11 70 0.0 1.6 0.00 0.61 0.00 72 1008.9
20190424063336 10 69 0.0 1.6 0.00 0.61 0.00 77 1008.8
20190424062829 10 94 0.0 1.6 0.00 0.61 0.00 78 1008.8
20190424062339 10 95 0.0 1.6 0.00 0.61 0.00 77 1008.8
20190424061830 9 93 0.0 0.0 0.00 0.61 0.00 76 1008.7
20190424061342 9 93 0.0 0.0 0.00 0.61 0.00 75 1008.7
20190424061001 8 93 0.0 0.0 0.00 0.61 0.00 76 1008.6
20190424060328 8 92 0.0 0.0 0.00 0.61 0.00 76 1008.5
20190424055840 8 92 0.0 0.0 0.00 0.61 0.00 76 1008.5
20190424055331 8 92 0.0 0.0 0.00 0.61 0.00 75 1008.4
20190424054823 8 90 0.0 0.0 0.00 0.61 0.00 76 1008.3
20190424054334 8 76 0.0 0.0 0.00 0.61 0.00 76 1008.2
20190424053823 8 76 0.0 0.0 0.00 0.61 0.00 75 1008.1
20190424053334 9 77 0.0 0.0 0.00 0.61 0.00 74 1008.0
20190424052828 9 78 0.0 0.0 0.00 0.61 0.00 73 1007.9
20190424052324 9 78 0.0 1.6 0.00 0.61 0.00 73 1007.7
20190424051835 9 79 0.0 1.6 0.00 0.61 0.00 72 1007.7
20190424051330 9 198 0.0 1.6 0.00 0.61 0.00 71 1007.7
20190424050819 10 197 0.0 1.6 0.00 0.61 0.00 70 1007.6
20190424050317 10 197 0.0 1.6 0.00 0.61 0.00 70 1007.5
20190424045832 9 196 0.0 1.6 0.00 0.61 0.00 69 1007.5
20190424045323 9 196 0.0 1.6 0.00 0.61 0.00 73 1007.5
20190424044818 9 198 0.0 0.0 0.00 0.61 0.00 73 1007.5
20190424044315 9 198 0.0 0.0 0.00 0.61 0.00 73 1007.3
20190424043829 9 197 0.0 1.6 0.00 0.61 0.00 74 1007.3
20190424043321 9 197 0.0 1.6 0.00 0.61 0.00 74 1007.2
20190424042833 9 196 0.0 1.6 0.00 0.61 0.00 73 1007.2
20190424042324 9 194 0.0 0.0 0.00 0.61 0.00 73 1007.1
20190424041837 9 194 0.0 1.6 0.00 0.61 0.00 71 1007.2
20190424041326 10 194 0.0 1.6 0.00 0.61 0.00 70 1007.1
20190424040824 10 197 0.0 1.6 0.00 0.61 0.00 70 1007.1
20190424040331 10 197 0.0 1.6 0.00 0.61 0.00 69 1007.0
20190424035827 10 198 0.0 1.6 0.00 0.61 0.00 68 1006.9
20190424035321 10 193 0.0 1.6 0.00 0.61 0.00 68 1006.8
20190424034834 10 220 0.0 1.6 0.00 0.61 0.00 68 1006.7
20190424034324 10 221 0.0 1.6 0.00 0.61 0.00 66 1006.8
20190424033834 11 221 0.0 1.6 0.00 0.61 0.00 65 1006.7
20190424033326 11 221 0.0 1.6 0.00 0.61 0.00 63 1006.5
20190424032824 11 221 0.0 1.6 0.00 0.61 0.00 63 1006.4
20190424032336 11 220 0.0 1.6 0.00 0.61 0.00 62 1006.3
20190424031828 11 221 0.0 1.6 0.00 0.61 0.00 61 1006.3
20190424031319 11 221 0.0 1.6 0.00 0.61 0.00 58 1006.2
20190424030834 11 221 0.0 1.6 0.00 0.61 0.00 59 1006.1
20190424030353 11 214 0.0 1.6 0.00 0.61 0.00 60 1006.0
20190424025825 11 216 0.0 1.6 0.00 0.61 0.00 61 1006.1
20190424025336 11 222 0.0 1.6 0.00 0.61 0.00 64 1006.0
20190424024828 11 204 0.0 1.6 0.00 0.61 0.00 65 1005.9
20190424024326 10 202 0.0 1.6 0.00 0.61 0.00 65 1005.9
20190424023818 10 205 0.0 1.6 0.00 0.61 0.00 65 1005.9
20190424023332 10 204 0.0 1.6 0.00 0.61 0.00 65 1005.8
20190424022824 10 205 0.0 1.6 0.00 0.61 0.00 65 1005.7
20190424022336 10 205 0.0 1.6 0.00 0.61 0.00 67 1005.7
20190424021826 10 205 0.0 1.6 0.00 0.61 0.00 68 1005.7
20190424021337 10 205 0.0 1.6 0.00 0.61 0.00 68 1005.6
20190424020848 10 205 0.0 1.6 0.00 0.61 0.00 68 1005.5
20190424020334 10 205 0.0 1.6 0.00 0.61 0.00 68 1005.4
20190424015825 10 205 0.0 1.6 0.00 0.61 0.00 68 1005.4
20190424015317 10 205 0.0 1.6 0.00 0.61 0.00 68 1005.4
20190424014831 10 205 0.0 1.6 0.00 0.61 0.00 68 1005.3
20190424014323 10 203 0.0 1.6 0.00 0.61 0.00 68 1005.2
20190424013834 10 205 0.0 1.6 0.00 0.61 0.00 67 1005.2
20190424013325 10 205 0.0 1.6 0.00 0.61 0.00 68 1005.1
20190424012837 10 202 0.0 1.6 0.00 0.61 0.00 68 1005.0
20190424012332 10 205 0.0 1.6 0.00 0.61 0.00 68 1005.0
20190424011827 10 205 0.0 1.6 0.00 0.61 0.00 67 1005.0
20190424011318 10 205 0.0 1.6 0.00 0.61 0.00 68 1004.9
20190424010830 10 202 0.0 1.6 0.00 0.61 0.00 67 1004.8
20190424010319 11 205 0.0 1.6 0.00 0.61 0.00 67 1004.8
20190424005831 11 204 0.0 1.6 0.00 0.61 0.00 67 1004.9
20190424005329 11 206 0.0 0.0 0.00 0.61 0.00 66 1004.9
20190424004820 11 205 0.0 0.0 0.00 0.61 0.00 65 1005.0
20190424004315 12 205 0.0 0.0 0.00 0.61 0.00 62 1005.0
20190424003811 12 205 0.0 0.0 0.00 0.61 0.00 61 1005.0
20190424003329 12 205 0.0 0.0 0.00 0.61 0.00 61 1004.9
20190424002820 13 205 0.0 1.6 0.00 0.61 0.00 58 1004.8
20190424002317 13 202 0.0 1.6 0.00 0.61 0.00 55 1004.7
20190424001815 13 204 0.0 1.6 0.00 0.61 0.00 54 1004.7
20190424001329 13 205 0.0 1.6 0.00 0.61 0.00 55 1004.6
20190424000325 13 230 0.0 1.6 0.00 0.61 0.00 53 1004.8
20190423235817 13 224 0.0 1.6 0.00 0.61 0.00 55 1004.8
20190423235328 13 199 0.0 1.6 0.00 0.61 0.00 55 1004.7
20190423234827 13 229 0.0 1.6 0.00 0.61 0.00 56 1004.7
20190423234318 13 200 0.0 1.6 0.00 0.61 0.00 56 1004.5
20190423233829 13 200 0.0 1.6 0.00 0.61 0.00 55 1004.4
20190423233321 13 199 0.0 1.6 0.00 0.61 0.00 55 1004.3
20190423232835 13 207 0.0 0.0 0.00 0.61 0.00 53 1004.2
20190423232326 13 207 0.0 0.0 0.00 0.61 0.00 54 1004.2
20190423231837 13 200 0.0 0.0 0.00 0.61 0.00 54 1004.2
20190423231329 13 185 0.0 0.0 0.00 0.61 0.00 53 1004.1
20190423230826 13 193 0.0 1.6 0.00 0.61 0.00 54 1004.0
20190423230338 13 238 0.0 1.6 0.00 0.61 0.00 53 1003.8
20190423225829 14 229 0.0 1.6 0.00 0.61 0.00 54 1003.8
20190423225321 14 231 0.0 0.0 0.00 0.61 0.00 54 1003.8
20190423224833 14 196 0.0 0.0 0.00 0.61 0.00 55 1003.7
20190423224324 14 200 0.0 0.0 0.00 0.61 0.00 55 1003.7
20190423223816 14 199 0.0 0.0 0.00 0.61 0.00 55 1003.5
20190423223333 14 229 0.0 0.0 0.00 0.61 0.00 56 1003.6
20190423222829 14 189 0.0 0.0 0.00 0.61 0.00 56 1003.6
20190423222320 14 194 0.0 0.0 0.00 0.61 0.00 57 1003.5
20190423221832 14 233 0.0 0.0 0.00 0.61 0.00 57 1003.4
20190423221323 13 215 0.0 0.0 0.00 0.61 0.00 58 1003.5
20190423220822 13 230 0.0 1.6 0.00 0.61 0.00 60 1003.4
20190423220330 13 205 0.0 1.6 0.00 0.61 0.00 65 1003.2
20190423215823 13 205 0.0 1.6 0.00 0.61 0.13 68 1003.1
20190423215315 13 205 0.0 1.6 0.00 0.61 0.13 69 1003.1
20190423214830 13 205 0.0 1.6 0.00 0.61 0.13 68 1003.0
20190423214327 13 203 0.0 1.6 0.00 0.61 0.13 68 1003.1
20190423213835 13 196 0.0 0.0 0.00 0.61 0.13 71 1002.9
20190423213328 13 194 0.0 0.0 0.00 0.61 0.13 75 1002.9
20190423212824 13 194 0.0 0.0 0.00 0.61 0.13 79 1002.8
20190423212318 14 191 0.0 0.0 0.00 0.61 0.13 80 1002.8
20190423211830 14 196 0.0 0.0 0.00 0.61 0.13 80 1002.7
20190423211321 14 196 0.0 0.0 0.00 0.61 0.13 80 1002.7
20190423210836 14 194 0.0 0.0 0.00 0.61 0.13 81 1002.5
20190423210329 14 134 0.0 0.0 0.00 0.61 0.13 84 1002.6
20190423205821 14 128 0.0 0.0 0.00 0.61 0.13 84 1002.4
20190423205333 14 134 0.0 0.0 0.00 0.61 0.13 84 1002.3
20190423204824 14 128 0.0 1.6 0.00 0.61 0.13 86 1002.2
20190423204316 14 130 0.0 1.6 0.00 0.61 0.13 85 1002.2
20190423203827 14 136 0.0 0.0 0.00 0.61 0.13 85 1002.1
20190423203319 14 136 0.0 0.0 0.00 0.61 0.13 84 1002.0
20190423202831 14 136 0.0 0.0 0.00 0.61 0.13 83 1001.9
20190423202326 14 136 0.0 0.0 0.00 0.61 0.13 82 1001.8
20190423201817 14 136 0.0 0.0 0.00 0.61 0.13 80 1001.8
20190423201329 14 136 0.0 0.0 0.00 0.61 0.13 80 1001.7
20190423200823 15 136 0.0 0.0 0.00 0.61 0.13 79 1001.5
20190423200335 15 136 0.0 0.0 0.00 0.61 0.13 79 1001.3
20190423195827 15 136 0.0 0.0 0.00 0.61 0.13 78 1001.0
20190423195321 15 136 0.0 0.0 0.00 0.61 0.13 80 1000.5
20190423194833 15 136 0.0 0.0 0.00 0.61 0.13 77 1000.2
20190423194327 15 136 0.0 0.0 0.00 0.61 0.13 77 1000.2
20190423193819 15 136 0.0 0.0 0.00 0.61 0.13 76 1000.2
20190423193331 15 135 0.0 0.0 0.00 0.61 0.13 76 1000.0
20190423192828 15 134 0.0 0.0 0.00 0.61 0.13 76 999.9
20190423192320 15 133 0.0 0.0 0.00 0.61 0.13 77 999.8
20190423191830 15 155 0.0 0.0 0.00 0.61 0.13 78 999.8
20190423191322 15 156 0.0 0.0 0.00 0.61 0.13 78 999.8
20190423190834 15 155 0.0 0.0 0.00 0.61 0.13 78 999.9
20190423190329 15 156 0.0 0.0 0.00 0.61 0.13 78 999.9
20190423185820 15 155 0.0 0.0 0.00 0.61 0.13 77 999.8
20190423185332 15 155 0.0 0.0 0.00 0.61 0.13 77 999.7
20190423184829 15 155 0.0 0.0 0.00 0.61 0.13 77 999.6
20190423184324 15 156 0.0 0.0 0.00 0.61 0.13 76 999.6
20190423183836 16 154 0.0 0.0 0.00 0.61 0.13 76 999.5
20190423183330 16 151 0.0 0.0 0.00 0.61 0.13 75 999.4
20190423182829 16 155 0.0 0.0 0.00 0.61 0.13 74 999.5
20190423182325 16 159 0.0 0.0 0.00 0.61 0.13 73 999.4
20190423181820 16 163 0.0 0.0 0.00 0.61 0.13 71 999.4
20190423181331 16 163 0.0 0.0 0.00 0.61 0.13 70 999.4
20190423180821 16 163 0.0 0.0 0.00 0.61 0.13 69 999.3
20190423180320 16 163 0.0 0.0 0.00 0.61 0.13 69 998.5
20190423175816 16 162 0.0 0.0 0.00 0.71 0.13 68 998.9
20190423175333 17 162 0.0 0.0 0.00 0.71 0.13 66 999.2
20190423174830 17 161 0.0 0.0 0.00 0.71 0.13 66 998.9
20190423174327 17 161 0.0 0.0 0.00 0.71 0.13 65 999.1
20190423173821 17 163 0.0 0.0 0.00 0.71 0.13 64 999.1
20190423173333 17 162 0.0 0.0 0.00 0.71 0.13 63 999.0
20190423172824 17 161 0.0 0.0 0.00 0.71 0.13 62 999.0
20190423172336 17 130 0.0 0.0 0.00 0.71 0.13 65 998.9
20190423171828 17 132 0.0 0.0 0.00 0.71 0.13 65 998.8
20190423171326 17 192 0.0 0.0 0.00 0.71 0.13 63 998.8
20190423170819 17 196 0.0 0.0 0.00 0.71 0.13 64 998.7
20190423170332 16 178 0.0 0.0 0.00 0.71 0.13 64 998.6
20190423165824 16 196 0.0 0.0 0.10 0.71 0.13 67 998.6
20190423165336 16 160 0.0 0.0 0.10 0.71 0.13 71 998.4
20190423164826 15 180 0.0 0.0 0.20 0.71 0.13 75 998.5
20190423164337 15 212 0.0 0.0 0.20 0.71 0.13 82 998.5
20190423163829 15 212 0.0 0.0 0.51 0.71 0.13 84 998.6
20190423163327 14 212 0.0 0.0 0.51 0.71 0.13 79 998.5
20190423162819 14 149 0.0 0.0 0.51 0.71 0.13 80 998.2
20190423162330 14 165 0.0 0.0 0.51 0.71 0.13 80 998.3
20190423161821 14 123 0.0 0.0 0.51 0.71 0.13 80 998.4
20190423161333 14 124 0.0 0.0 0.51 0.71 0.13 81 998.6
20190423160824 15 118 0.0 0.0 0.51 0.71 0.13 80 998.7
20190423160326 15 96 0.0 0.0 0.51 0.71 0.13 80 998.9
20190423155837 15 199 0.0 0.0 0.41 0.61 0.10 79 999.1
20190423155330 15 199 0.0 0.0 0.41 0.61 0.10 78 999.2
20190423154828 15 109 0.0 0.0 0.30 0.51 0.08 80 999.2
20190423154320 16 289 0.0 0.0 0.30 0.51 0.08 79 999.3
20190423153831 16 287 0.0 0.0 0.00 0.20 0.03 77 999.4
20190423153321 16 315 0.0 0.0 0.00 0.20 0.03 77 999.4
20190423152832 16 323 0.0 0.0 0.00 0.20 0.03 77 999.2
20190423152330 16 317 0.0 0.0 0.00 0.20 0.03 77 999.2
20190423151827 16 339 0.0 0.0 0.00 0.20 0.03 76 999.2
20190423151325 17 213 0.0 0.0 0.00 0.20 0.03 74 999.3
20190423150837 17 347 0.0 0.0 0.00 0.20 0.03 73 999.2
20190423150327 17 331 0.0 0.0 0.00 0.20 0.03 72 999.1
20190423145824 18 311 0.0 0.0 0.00 0.20 0.03 70 999.0
20190423145336 18 284 0.0 0.0 0.00 0.20 0.03 66 998.9
20190423144833 19 327 0.0 0.0 0.00 0.20 0.03 65 998.6
20190423144328 20 189 0.0 0.0 0.00 0.20 0.03 62 998.4
20190423143838 20 220 0.0 0.0 0.00 0.20 0.03 63 998.1
20190423143334 20 204 0.0 0.0 0.00 0.20 0.03 64 998.0
20190423142832 20 200 0.0 0.0 0.00 0.20 0.03 61 998.0
20190423142326 20 218 0.0 0.0 0.00 0.20 0.03 61 997.9
20190423141837 20 223 0.0 0.0 0.00 0.20 0.03 62 997.9
20190423141331 20 192 0.0 0.0 0.00 0.20 0.03 60 997.8
20190423140824 20 206 0.0 0.0 0.00 0.20 0.03 59 997.9
20190423140337 20 191 0.0 0.0 0.00 0.20 0.03 58 997.8
20190423135832 20 183 0.0 0.0 0.00 0.20 0.03 57 997.8
20190423135327 20 195 0.0 0.0 0.00 0.20 0.03 55 997.8
20190423134822 21 183 0.0 0.0 0.00 0.20 0.03 56 997.9
20190423134333 21 45 0.0 0.0 0.00 0.20 0.03 56 997.8
20190423133824 21 185 0.0 0.0 0.00 0.20 0.03 55 997.9
20190423133336 21 185 0.0 0.0 0.00 0.20 0.03 54 998.0
20190423132829 21 132 0.0 0.0 0.00 0.20 0.03 54 998.0
20190423132324 21 180 0.0 0.0 0.00 0.20 0.03 53 998.0
20190423131825 21 203 0.0 0.0 0.00 0.20 0.03 58 997.8
20190423131337 21 198 0.0 0.0 0.00 0.20 0.03 61 997.7
20190423130830 21 67 0.0 0.0 0.00 0.20 0.03 60 997.7
20190423130320 21 145 0.0 0.0 0.00 0.20 0.03 58 997.7
20190423125831 21 98 0.0 0.0 0.00 0.41 0.03 59 997.9
20190423125343 21 281 0.0 0.0 0.00 0.41 0.03 61 997.7
20190423124832 21 281 0.0 0.0 0.00 0.41 0.03 60 997.7
20190423124330 21 282 0.0 0.0 0.00 0.41 0.03 61 997.8
20190423123829 21 281 0.0 0.0 0.00 0.41 0.03 60 997.9
20190423123343 21 281 0.0 0.0 0.00 0.41 0.03 60 998.0
20190423122835 21 194 0.0 0.0 0.00 0.41 0.03 62 997.9
20190423122326 21 194 0.0 0.0 0.00 0.41 0.03 62 997.8
20190423121821 21 118 0.0 0.0 0.00 0.41 0.03 63 997.7
20190423121337 21 132 0.0 0.0 0.00 0.41 0.03 64 997.7
20190423120827 20 132 0.0 0.0 0.10 0.41 0.03 62 997.8
20190423120338 20 130 0.0 0.0 0.10 0.41 0.03 60 997.8
20190423115835 21 129 0.0 0.0 0.10 2.11 0.03 60 997.7
20190423115329 21 119 0.0 0.0 0.10 2.11 0.03 62 997.6
20190423114820 20 120 0.0 0.0 0.10 2.11 0.03 59 997.6
20190423114335 21 128 0.0 0.0 0.10 2.11 0.03 61 997.7
20190423113829 21 132 0.0 0.0 0.10 2.11 0.03 61 997.7
20190423113321 21 67 0.0 0.0 0.10 2.11 0.03 61 997.6
20190423112836 21 26 0.0 0.0 0.10 2.11 0.03 56 997.7
20190423112327 21 72 0.0 0.0 0.10 2.11 0.03 57 997.5
20190423111822 21 128 0.0 0.0 0.10 2.11 0.03 60 997.7
20190423111335 22 306 0.0 0.0 0.10 2.11 0.03 61 997.7
20190423110829 22 84 0.0 0.0 0.00 2.01 0.00 61 997.7
20190423110324 22 98 0.0 0.0 0.00 2.01 0.00 59 997.8
20190423105835 22 92 0.0 0.0 0.00 3.71 0.00 59 998.0
20190423105326 22 98 0.0 0.0 0.00 3.71 0.00 62 998.1
20190423104838 22 88 0.0 0.0 0.00 3.71 0.00 60 998.1
20190423104330 22 84 0.0 0.0 0.00 3.71 0.00 61 998.2
20190423103844 21 99 0.0 0.0 0.00 3.71 0.00 61 998.2
20190423103352 21 77 0.0 0.0 0.00 3.71 0.00 61 998.3
20190423102827 21 102 0.0 0.0 0.00 3.71 0.00 62 998.4
20190423102339 21 74 0.0 0.0 0.00 3.71 0.00 65 998.5
20190423101830 21 90 0.0 0.0 0.00 3.71 0.00 64 998.5
20190423101325 20 89 0.0 0.0 0.00 3.71 0.00 67 998.5
20190423100835 20 69 0.0 0.0 0.00 3.71 0.00 66 998.5
20190423100338 20 348 0.0 0.0 0.00 3.71 0.00 65 998.6
20190423095829 20 88 0.0 0.0 0.00 6.10 0.00 63 998.5
20190423095327 20 92 0.0 0.0 0.00 6.10 0.00 62 998.6
20190423094839 20 76 0.0 0.0 0.00 6.10 0.00 65 998.6
20190423094331 20 94 0.0 0.0 0.00 6.10 0.00 65 998.6
20190423093822 20 88 0.0 0.0 0.00 6.10 0.00 67 998.5
20190423092827 19 87 0.0 0.0 0.00 6.10 0.00 70 998.5
20190423092320 19 61 0.0 0.0 0.00 6.10 0.00 73 998.5
20190423091838 19 34 0.0 0.0 0.00 6.10 0.00 71 998.5
20190423091329 19 79 0.0 0.0 0.00 6.10 0.00 71 998.4
20190423090821 18 98 0.0 0.0 0.00 6.10 0.00 70 998.4
20190423090336 18 204 0.0 0.0 0.00 6.10 0.00 74 998.4
20190423085820 18 205 0.0 0.0 0.00 7.80 0.00 72 998.4
20190423085332 17 205 0.0 0.0 0.00 7.80 0.00 76 998.3
20190423084826 17 205 0.0 0.0 0.00 7.80 0.00 79 998.2
20190423084317 16 205 0.0 0.0 0.00 7.80 0.00 83 998.3
20190423083833 16 205 0.0 0.0 0.00 7.80 0.00 82 998.4
20190423083330 16 205 0.0 0.0 0.00 7.80 0.00 86 998.3